This is the latest recevied weather packets stored in our database for station/object 9W2UHF-10. If no packets are shown the sender has not sent any weather packets the latest 10 day(s).
| Time | Temp. | Humidity | Pressure | Rain* | Wind** | Luminosity | Snow |
|---|---|---|---|---|---|---|---|
| 1777725071 | 31.67° C | 68% | 1010.6 hPa | - | - | - | - |
| 1777724968 | 31.67° C | 68% | 1010.6 hPa | - | - | - | - |
| 1777723768 | 31.67° C | 67% | 1010.2 hPa | - | - | - | - |
| 1777722568 | 31.67° C | 66% | 1010 hPa | - | - | - | - |
| 1777721368 | 32.22° C | 66% | 1009.8 hPa | - | - | - | - |
| 1777720168 | 32.22° C | 67% | 1009.5 hPa | - | - | - | - |
| 1777718968 | 32.22° C | 66% | 1009 hPa | - | - | - | - |
| 1777717838 | 32.78° C | 65% | 1008.9 hPa | - | - | - | - |
| 1777717768 | 32.78° C | 65% | 1008.9 hPa | - | - | - | - |
| 1777716608 | 32.78° C | 66% | 1008.6 hPa | - | - | - | - |
| 1777716568 | 32.78° C | 66% | 1008.6 hPa | - | - | - | - |
| 1777715367 | 32.78° C | 66% | 1008.7 hPa | - | - | - | - |
| 1777714167 | 32.78° C | 63% | 1008.5 hPa | - | - | - | - |
| 1777712967 | 32.78° C | 60% | 1008.1 hPa | - | - | - | - |
| 1777711767 | 33.33° C | 61% | 1007.7 hPa | - | - | - | - |
| 1777710701 | 33.89° C | 59% | 1007.4 hPa | - | - | - | - |
| 1777710566 | 33.89° C | 59% | 1007.4 hPa | - | - | - | - |
| 1777709366 | 33.89° C | 59% | 1007.6 hPa | - | - | - | - |
| 1777708268 | 33.89° C | 58% | 1008 hPa | - | - | - | - |
| 1777708166 | 33.89° C | 58% | 1008 hPa | - | - | - | - |
| 1777706966 | 33.89° C | 58% | 1008.5 hPa | - | - | - | - |
| 1777704633 | 34.44° C | 54% | 1009.5 hPa | - | - | - | - |
| 1777704569 | 34.44° C | 54% | 1009.5 hPa | - | - | - | - |
| 1777703369 | 34.44° C | 53% | 1009.9 hPa | - | - | - | - |
| 1777702169 | 34.44° C | 52% | 1010.1 hPa | - | - | - | - |
* Rain since midnight (hover to see other rain measurements)
** Current wind speed in m/s (hover to see current wind gust speed)